TimeBST,TemperatureF,Dew PointF,Humidity,Sea Level PressureIn,VisibilityMPH,Wind Direction,Wind SpeedMPH,Gust SpeedMPH,PrecipitationIn,Events,Conditions,WindDirDegrees,DateUTC
12:20 AM,55.4,51.8,88,30.04,-9999.0,WSW,2.3,-,N/A,,Clear,250,2013-06-17 23:20:00
12:50 AM,57.2,53.6,88,30.01,-9999.0,Calm,Calm,-,N/A,,Clear,0,2013-06-17 23:50:00
1:20 AM,57.2,53.6,88,30.01,-9999.0,Calm,Calm,-,N/A,,Clear,0,2013-06-18 00:20:00
1:50 AM,57.2,53.6,88,30.01,-9999.0,ENE,3.5,-,N/A,,Clear,60,2013-06-18 00:50:00
2:20 AM,57.2,53.6,88,30.01,-9999.0,NE,4.6,-,N/A,,Clear,50,2013-06-18 01:20:00
2:50 AM,57.2,53.6,88,30.01,6.2,NE,4.6,-,N/A,,Overcast,50,2013-06-18 01:50:00
3:20 AM,57.2,53.6,88,30.01,6.2,ENE,4.6,-,N/A,,Partly Cloudy,60,2013-06-18 02:20:00
3:50 AM,55.4,53.6,94,30.01,6.2,ENE,5.8,-,N/A,,Unknown,60,2013-06-18 02:50:00
4:20 AM,55.4,53.6,94,30.01,6.2,NE,3.5,-,N/A,,Scattered Clouds,40,2013-06-18 03:20:00
4:50 AM,55.4,53.6,94,29.98,6.2,ENE,5.8,-,N/A,,Scattered Clouds,70,2013-06-18 03:50:00
5:20 AM,55.4,53.6,94,29.98,6.2,NE,4.6,-,N/A,,Mostly Cloudy,50,2013-06-18 04:20:00
5:50 AM,55.4,53.6,94,29.98,5.6,NE,4.6,-,N/A,Rain,Light Rain,50,2013-06-18 04:50:00
6:20 AM,55.4,53.6,94,29.98,6.2,NE,6.9,-,N/A,,Mostly Cloudy,40,2013-06-18 05:20:00
6:50 AM,57.2,53.6,88,29.98,6.2,ENE,4.6,-,N/A,,Mostly Cloudy,70,2013-06-18 05:50:00
7:20 AM,57.2,53.6,88,29.98,6.2,East,5.8,-,N/A,,Partly Cloudy,80,2013-06-18 06:20:00
7:50 AM,57.2,53.6,88,29.98,6.2,NE,4.6,-,N/A,,Partly Cloudy,50,2013-06-18 06:50:00
8:20 AM,59.0,53.6,82,29.98,6.2,Variable,3.5,-,N/A,,Partly Cloudy,0,2013-06-18 07:20:00
8:50 AM,60.8,55.4,82,29.98,6.2,Variable,3.5,-,N/A,,Partly Cloudy,0,2013-06-18 07:50:00
9:20 AM,62.6,53.6,72,29.98,6.2,Variable,3.5,-,N/A,,Partly Cloudy,0,2013-06-18 08:20:00
9:50 AM,64.4,55.4,73,29.98,6.2,Calm,Calm,-,N/A,,Scattered Clouds,0,2013-06-18 08:50:00
10:20 AM,64.4,53.6,68,29.98,6.2,Variable,4.6,-,N/A,,Scattered Clouds,0,2013-06-18 09:20:00
10:50 AM,64.4,51.8,64,29.98,6.2,SW,8.1,-,N/A,,Partly Cloudy,230,2013-06-18 09:50:00
11:20 AM,64.4,51.8,64,29.95,6.2,SW,6.9,-,N/A,,Partly Cloudy,230,2013-06-18 10:20:00
11:50 AM,66.2,51.8,60,29.95,6.2,SW,8.1,-,N/A,,Scattered Clouds,230,2013-06-18 10:50:00
12:20 PM,64.4,50.0,59,29.95,6.2,SW,6.9,-,N/A,,Scattered Clouds,220,2013-06-18 11:20:00
12:50 PM,66.2,51.8,60,29.95,6.2,West,10.4,-,N/A,,Scattered Clouds,260,2013-06-18 11:50:00
1:20 PM,64.4,51.8,64,29.95,6.2,West,9.2,-,N/A,,Scattered Clouds,270,2013-06-18 12:20:00
1:50 PM,64.4,51.8,64,29.95,6.2,West,9.2,-,N/A,,Scattered Clouds,270,2013-06-18 12:50:00
2:20 PM,68.0,53.6,60,29.95,-9999.0,WSW,8.1,-,N/A,,Clear,250,2013-06-18 13:20:00
2:50 PM,66.2,51.8,60,29.95,-9999.0,WSW,9.2,-,N/A,,Clear,240,2013-06-18 13:50:00
3:20 PM,66.2,51.8,60,29.95,-9999.0,WSW,6.9,-,N/A,,Clear,250,2013-06-18 14:20:00
3:50 PM,68.0,51.8,56,29.95,-9999.0,WSW,8.1,-,N/A,,Clear,250,2013-06-18 14:50:00
4:20 PM,66.2,51.8,60,29.95,-9999.0,SW,9.2,-,N/A,,Clear,230,2013-06-18 15:20:00
4:50 PM,66.2,51.8,60,29.95,6.2,WSW,10.4,-,N/A,,Partly Cloudy,250,2013-06-18 15:50:00
5:20 PM,68.0,51.8,56,29.95,6.2,WSW,11.5,-,N/A,,Partly Cloudy,250,2013-06-18 16:20:00
5:50 PM,66.2,51.8,60,29.95,6.2,WSW,10.4,-,N/A,,Partly Cloudy,240,2013-06-18 16:50:00
6:20 PM,66.2,50.0,56,29.95,6.2,West,12.7,-,N/A,,Partly Cloudy,270,2013-06-18 17:20:00
6:50 PM,64.4,51.8,64,29.95,6.2,West,9.2,-,N/A,,Unknown,270,2013-06-18 17:50:00
7:20 PM,64.4,51.8,64,29.95,6.2,West,10.4,-,N/A,,Partly Cloudy,270,2013-06-18 18:20:00
7:50 PM,62.6,51.8,68,29.95,-9999.0,West,5.8,-,N/A,,Clear,270,2013-06-18 18:50:00
8:20 PM,60.8,51.8,72,29.95,-9999.0,Variable,3.5,-,N/A,,Clear,0,2013-06-18 19:20:00
8:50 PM,60.8,51.8,72,29.95,-9999.0,WNW,8.1,-,N/A,,Clear,300,2013-06-18 19:50:00
9:20 PM,59.0,51.8,77,29.95,-9999.0,WNW,6.9,-,N/A,,Clear,300,2013-06-18 20:20:00
9:50 PM,57.2,50.0,77,29.98,-9999.0,WNW,6.9,-,N/A,,Clear,290,2013-06-18 20:50:00
10:20 PM,53.6,50.0,88,29.98,-9999.0,WSW,6.9,-,N/A,,Clear,240,2013-06-18 21:20:00
10:50 PM,51.8,48.2,88,29.98,6.2,SW,6.9,-,N/A,,Partly Cloudy,230,2013-06-18 21:50:00
11:20 PM,51.8,48.2,88,29.98,6.2,WSW,6.9,-,N/A,,Scattered Clouds,240,2013-06-18 22:20:00
11:50 PM,51.8,50.0,94,29.98,6.2,West,4.6,-,N/A,,Scattered Clouds,280,2013-06-18 22:50:00